Time,TemperatureF,DewpointF,PressureIn,WindDirection,WindDirectionDegrees,WindSpeedMPH,WindSpeedGustMPH,Humidity,HourlyPrecipIn,Conditions,Clouds,dailyrainin,SoftwareType,DateUTC
2013-08-23 00:00:00,63.9,63.3,29.92,SSW,192,0.0,2.0,98,0.00,,,0.04,meteohub,2013-08-23 04:00:00,
2013-08-23 00:01:00,63.9,63.3,29.91,SSW,192,0.0,2.0,98,0.00,,,0.04,meteohub,2013-08-23 04:01:00,
2013-08-23 00:02:00,63.9,63.3,29.91,SW,225,1.0,2.0,98,0.00,,,0.04,meteohub,2013-08-23 04:02:00,
2013-08-23 00:07:00,63.9,63.3,29.92,West,267,0.0,3.0,98,0.00,,,0.04,meteohub,2013-08-23 04:07:00,
2013-08-23 00:12:00,63.7,63.1,29.92,West,267,0.0,3.0,98,0.00,,,0.04,meteohub,2013-08-23 04:12:00,
2013-08-23 00:17:00,63.7,63.1,29.92,West,267,0.0,3.0,98,0.00,,,0.04,meteohub,2013-08-23 04:17:00,
2013-08-23 00:22:00,63.7,63.1,29.92,West,275,1.0,2.0,98,0.00,,,0.04,meteohub,2013-08-23 04:22:00,
2013-08-23 00:27:00,63.5,63.0,29.92,West,275,0.0,3.0,98,0.00,,,0.04,meteohub,2013-08-23 04:27:00,
2013-08-23 00:32:00,63.3,62.8,29.92,East,80,0.0,3.0,98,0.00,,,0.04,meteohub,2013-08-23 04:32:00,
2013-08-23 00:37:00,63.3,62.8,29.92,West,273,0.0,2.0,98,0.00,,,0.04,meteohub,2013-08-23 04:37:00,
2013-08-23 00:42:00,63.3,62.8,29.92,West,273,0.0,3.0,98,0.00,,,0.04,meteohub,2013-08-23 04:42:00,
2013-08-23 00:47:00,63.1,62.2,29.93,West,273,0.0,3.0,97,0.00,,,0.04,meteohub,2013-08-23 04:47:00,
2013-08-23 00:52:00,63.1,62.2,29.93,West,273,0.0,3.0,97,0.00,,,0.04,meteohub,2013-08-23 04:52:00,
2013-08-23 00:57:00,63.0,62.1,29.93,West,273,0.0,1.0,97,0.00,,,0.04,meteohub,2013-08-23 04:57:00,
2013-08-23 01:02:00,63.0,62.4,29.93,SSE,150,1.0,1.0,98,0.00,,,0.04,meteohub,2013-08-23 05:02:00,
2013-08-23 01:07:00,63.0,62.4,29.93,SSE,150,0.0,2.0,98,0.00,,,0.04,meteohub,2013-08-23 05:07:00,
2013-08-23 01:12:00,62.8,62.2,29.93,WNW,286,0.0,2.0,98,0.00,,,0.04,meteohub,2013-08-23 05:12:00,
2013-08-23 01:17:00,62.8,62.2,29.93,WNW,286,0.0,6.0,98,0.00,,,0.04,meteohub,2013-08-23 05:17:00,
2013-08-23 01:22:00,62.8,62.2,29.93,WNW,286,0.0,6.0,98,0.00,,,0.04,meteohub,2013-08-23 05:22:00,
2013-08-23 01:27:00,62.8,62.2,29.93,WNW,286,0.0,6.0,98,0.00,,,0.04,meteohub,2013-08-23 05:27:00,
2013-08-23 01:32:00,62.8,62.2,29.93,WNW,286,0.0,1.0,98,0.00,,,0.04,meteohub,2013-08-23 05:32:00,
2013-08-23 01:37:00,62.8,62.2,29.93,WNW,286,0.0,1.0,98,0.00,,,0.04,meteohub,2013-08-23 05:37:00,
2013-08-23 01:42:00,62.6,62.1,29.93,WNW,286,0.0,1.0,98,0.00,,,0.04,meteohub,2013-08-23 05:42:00,
2013-08-23 01:47:00,62.6,62.1,29.93,WSW,247,0.0,2.0,98,0.00,,,0.04,meteohub,2013-08-23 05:47:00,
2013-08-23 01:52:00,62.6,62.1,29.93,WSW,250,0.0,2.0,98,0.00,,,0.04,meteohub,2013-08-23 05:52:00,
2013-08-23 01:57:00,62.4,61.9,29.93,WSW,249,0.0,2.0,98,0.00,,,0.04,meteohub,2013-08-23 05:57:00,
2013-08-23 02:02:00,62.2,61.7,29.94,WSW,249,0.0,4.0,98,0.00,,,0.04,meteohub,2013-08-23 06:02:00,
2013-08-23 02:07:00,62.2,61.7,29.93,NE,37,0.0,4.0,98,0.00,,,0.04,meteohub,2013-08-23 06:07:00,
2013-08-23 02:12:00,62.1,61.5,29.94,SSW,192,0.0,4.0,98,0.00,,,0.04,meteohub,2013-08-23 06:12:00,
2013-08-23 02:17:00,62.1,61.2,29.94,SSW,192,0.0,3.0,97,0.00,,,0.04,meteohub,2013-08-23 06:17:00,
2013-08-23 02:22:00,61.9,61.0,29.94,SSW,192,0.0,3.0,97,0.00,,,0.04,meteohub,2013-08-23 06:22:00,
2013-08-23 02:27:00,61.7,60.8,29.94,SSW,192,0.0,2.0,97,0.00,,,0.04,meteohub,2013-08-23 06:27:00,
2013-08-23 02:32:00,61.5,60.6,29.94,SSW,192,0.0,1.0,97,0.00,,,0.04,meteohub,2013-08-23 06:32:00,
2013-08-23 02:37:00,61.3,60.4,29.94,SSW,192,0.0,1.0,97,0.00,,,0.04,meteohub,2013-08-23 06:37:00,
2013-08-23 02:42:00,61.2,60.3,29.94,SSW,192,0.0,1.0,97,0.00,,,0.04,meteohub,2013-08-23 06:42:00,
2013-08-23 02:47:00,61.0,60.1,29.94,SSW,192,0.0,1.0,97,0.00,,,0.04,meteohub,2013-08-23 06:47:00,
2013-08-23 02:52:00,60.8,59.9,29.94,SSW,192,0.0,0.0,97,0.00,,,0.04,meteohub,2013-08-23 06:52:00,
2013-08-23 02:57:00,60.6,59.7,29.94,SSW,192,0.0,0.0,97,0.00,,,0.04,meteohub,2013-08-23 06:57:00,
2013-08-23 03:02:00,60.4,59.5,29.94,SSW,192,0.0,0.0,97,0.00,,,0.04,meteohub,2013-08-23 07:02:00,
2013-08-23 03:07:00,60.3,59.4,29.94,SSW,192,0.0,0.0,97,0.00,,,0.04,meteohub,2013-08-23 07:07:00,
2013-08-23 03:12:00,60.1,59.2,29.95,SSW,192,0.0,0.0,97,0.00,,,0.04,meteohub,2013-08-23 07:12:00,
2013-08-23 03:17:00,59.9,59.0,29.95,SSW,192,0.0,1.0,97,0.00,,,0.04,meteohub,2013-08-23 07:17:00,
2013-08-23 03:22:00,59.7,58.8,29.95,SSW,192,0.0,1.0,97,0.00,,,0.04,meteohub,2013-08-23 07:22:00,
2013-08-23 03:27:00,59.5,58.6,29.94,SSW,192,0.0,1.0,97,0.00,,,0.04,meteohub,2013-08-23 07:27:00,
2013-08-23 03:32:00,59.4,58.5,29.94,SSW,192,0.0,0.0,97,0.00,,,0.04,meteohub,2013-08-23 07:32:00,
2013-08-23 03:37:00,59.2,58.3,29.94,SSW,192,0.0,0.0,97,0.00,,,0.04,meteohub,2013-08-23 07:37:00,
2013-08-23 03:42:00,59.2,58.3,29.95,SSW,192,0.0,0.0,97,0.00,,,0.04,meteohub,2013-08-23 07:42:00,
2013-08-23 03:47:00,58.8,57.9,29.94,SSW,192,0.0,0.0,97,0.00,,,0.04,meteohub,2013-08-23 07:47:00,
2013-08-23 03:52:00,58.6,57.7,29.94,SSW,192,0.0,0.0,97,0.00,,,0.04,meteohub,2013-08-23 07:52:00,
2013-08-23 03:57:00,58.6,58.1,29.94,SSW,192,0.0,0.0,98,0.00,,,0.04,meteohub,2013-08-23 07:57:00,
2013-08-23 04:02:00,58.6,58.1,29.94,SSW,192,0.0,0.0,98,0.00,,,0.04,meteohub,2013-08-23 08:02:00,
2013-08-23 04:07:00,58.6,58.1,29.94,SSW,192,0.0,0.0,98,0.00,,,0.04,meteohub,2013-08-23 08:07:00,
2013-08-23 04:12:00,58.5,57.9,29.94,SSW,192,0.0,0.0,98,0.00,,,0.04,meteohub,2013-08-23 08:12:00,
2013-08-23 04:17:00,58.5,57.9,29.94,SSW,192,0.0,0.0,98,0.00,,,0.04,meteohub,2013-08-23 08:17:00,
2013-08-23 04:22:00,58.3,57.4,29.94,SSW,192,0.0,0.0,97,0.00,,,0.04,meteohub,2013-08-23 08:22:00,
2013-08-23 04:27:00,57.9,57.0,29.94,SSW,192,0.0,0.0,97,0.00,,,0.04,meteohub,2013-08-23 08:27:00,
2013-08-23 04:32:00,57.9,57.4,29.94,SSW,192,0.0,0.0,98,0.00,,,0.04,meteohub,2013-08-23 08:32:00,
2013-08-23 04:37:00,57.7,57.2,29.95,SSW,192,0.0,0.0,98,0.00,,,0.04,meteohub,2013-08-23 08:37:00,
2013-08-23 04:42:00,57.6,56.7,29.95,SSW,192,0.0,0.0,97,0.00,,,0.04,meteohub,2013-08-23 08:42:00,
2013-08-23 04:47:00,57.4,56.8,29.95,SSW,192,0.0,0.0,98,0.00,,,0.04,meteohub,2013-08-23 08:47:00,
2013-08-23 04:52:00,57.4,56.8,29.95,SSW,192,0.0,0.0,98,0.00,,,0.04,meteohub,2013-08-23 08:52:00,
2013-08-23 04:57:00,57.2,56.7,29.95,WNW,298,0.0,1.0,98,0.00,,,0.04,meteohub,2013-08-23 08:57:00,
2013-08-23 05:02:00,57.2,56.7,29.95,NE,40,0.0,3.0,98,0.00,,,0.04,meteohub,2013-08-23 09:02:00,
2013-08-23 05:07:00,57.0,56.5,29.96,WSW,237,0.0,3.0,98,0.00,,,0.04,meteohub,2013-08-23 09:07:00,
2013-08-23 05:12:00,57.0,56.5,29.96,WSW,237,0.0,3.0,98,0.01,,,0.05,meteohub,2013-08-23 09:12:00,
2013-08-23 05:17:00,57.0,56.5,29.96,WSW,237,0.0,2.0,98,0.01,,,0.05,meteohub,2013-08-23 09:17:00,
2013-08-23 05:22:00,57.0,56.5,29.96,ENE,60,0.0,1.0,98,0.01,,,0.05,meteohub,2013-08-23 09:22:00,
2013-08-23 05:27:00,57.0,56.5,29.96,ENE,69,1.0,3.0,98,0.01,,,0.05,meteohub,2013-08-23 09:27:00,
2013-08-23 05:32:00,57.0,56.5,29.96,ENE,69,0.0,3.0,98,0.01,,,0.05,meteohub,2013-08-23 09:32:00,
2013-08-23 05:37:00,56.8,56.3,29.96,ENE,69,0.0,3.0,98,0.01,,,0.05,meteohub,2013-08-23 09:37:00,
2013-08-23 05:42:00,56.8,56.3,29.96,ENE,69,0.0,2.0,98,0.01,,,0.05,meteohub,2013-08-23 09:42:00,
2013-08-23 05:47:00,56.8,56.3,29.97,ENE,69,0.0,0.0,98,0.01,,,0.05,meteohub,2013-08-23 09:47:00,
2013-08-23 05:53:00,56.8,56.3,29.97,ENE,69,0.0,1.0,98,0.01,,,0.05,meteohub,2013-08-23 09:53:00,
2013-08-23 05:58:00,56.7,56.1,29.97,ENE,69,0.0,1.0,98,0.01,,,0.05,meteohub,2013-08-23 09:58:00,
2013-08-23 06:03:00,56.7,56.1,29.97,ENE,69,0.0,1.0,98,0.01,,,0.05,meteohub,2013-08-23 10:03:00,
2013-08-23 06:08:00,56.5,55.9,29.97,ENE,69,0.0,0.0,98,0.01,,,0.05,meteohub,2013-08-23 10:08:00,
2013-08-23 06:13:00,56.5,55.9,29.97,ENE,69,0.0,0.0,98,0.00,,,0.05,meteohub,2013-08-23 10:13:00,
2013-08-23 06:18:00,56.5,55.9,29.98,ENE,69,0.0,0.0,98,0.00,,,0.05,meteohub,2013-08-23 10:18:00,
2013-08-23 06:23:00,56.3,55.8,29.98,ENE,69,0.0,0.0,98,0.00,,,0.05,meteohub,2013-08-23 10:23:00,
2013-08-23 06:28:00,56.1,55.6,29.99,ENE,69,0.0,1.0,98,0.00,,,0.05,meteohub,2013-08-23 10:28:00,
2013-08-23 06:33:00,56.1,55.6,29.99,ENE,69,0.0,1.0,98,0.00,,,0.05,meteohub,2013-08-23 10:33:00,
2013-08-23 06:38:00,55.9,55.4,29.99,ENE,69,0.0,0.0,98,0.00,,,0.05,meteohub,2013-08-23 10:38:00,
2013-08-23 06:43:00,55.9,55.4,29.99,NE,40,0.0,0.0,98,0.00,,,0.05,meteohub,2013-08-23 10:43:00,
2013-08-23 06:48:00,55.9,55.4,29.99,NE,40,0.0,1.0,98,0.00,,,0.05,meteohub,2013-08-23 10:48:00,
2013-08-23 06:53:00,56.1,55.6,30.00,NE,40,0.0,1.0,98,0.00,,,0.05,meteohub,2013-08-23 10:53:00,
2013-08-23 06:58:00,56.1,55.6,30.00,NE,40,0.0,0.0,98,0.00,,,0.05,meteohub,2013-08-23 10:58:00,
2013-08-23 07:03:00,56.3,55.9,30.00,NE,40,0.0,0.0,99,0.00,,,0.05,meteohub,2013-08-23 11:03:00,
2013-08-23 07:08:00,56.5,55.9,30.00,NE,40,0.0,0.0,98,0.00,,,0.05,meteohub,2013-08-23 11:08:00,
2013-08-23 07:13:00,56.7,56.1,30.01,NE,35,0.0,0.0,98,0.00,,,0.05,meteohub,2013-08-23 11:13:00,
2013-08-23 07:18:00,56.7,56.3,30.01,NE,35,0.0,1.0,99,0.00,,,0.05,meteohub,2013-08-23 11:18:00,
2013-08-23 07:23:00,56.8,56.5,30.01,East,92,0.0,1.0,99,0.00,,,0.05,meteohub,2013-08-23 11:23:00,
2013-08-23 07:28:00,57.0,56.7,30.01,East,92,0.0,2.0,99,0.00,,,0.05,meteohub,2013-08-23 11:28:00,
2013-08-23 07:33:00,57.4,57.0,30.01,WSW,244,0.0,2.0,99,0.00,,,0.05,meteohub,2013-08-23 11:33:00,
2013-08-23 07:38:00,57.7,57.4,30.01,WSW,244,0.0,2.0,99,0.00,,,0.05,meteohub,2013-08-23 11:38:00,
2013-08-23 07:43:00,57.9,57.6,30.02,SSW,213,0.0,2.0,99,0.00,,,0.05,meteohub,2013-08-23 11:43:00,
2013-08-23 07:48:00,57.9,57.6,30.02,ESE,115,0.0,2.0,99,0.00,,,0.05,meteohub,2013-08-23 11:48:00,
2013-08-23 07:53:00,57.9,57.4,30.02,ESE,115,0.0,3.0,98,0.00,,,0.05,meteohub,2013-08-23 11:53:00,
2013-08-23 07:58:00,57.9,57.4,30.02,NW,325,0.0,3.0,98,0.00,,,0.05,meteohub,2013-08-23 11:58:00,
2013-08-23 08:03:00,57.7,57.2,30.02,WSW,258,0.0,2.0,98,0.00,,,0.05,meteohub,2013-08-23 12:03:00,
2013-08-23 08:08:00,57.7,57.2,30.03,WSW,258,0.0,3.0,98,0.00,,,0.05,meteohub,2013-08-23 12:08:00,
2013-08-23 08:13:00,57.7,57.2,30.03,WSW,258,0.0,3.0,98,0.00,,,0.05,meteohub,2013-08-23 12:13:00,
2013-08-23 08:18:00,57.9,57.4,30.03,WSW,258,0.0,3.0,98,0.00,,,0.05,meteohub,2013-08-23 12:18:00,
2013-08-23 08:23:00,58.1,57.6,30.03,West,259,0.0,2.0,98,0.00,,,0.05,meteohub,2013-08-23 12:23:00,
2013-08-23 08:28:00,58.1,57.2,30.03,West,259,0.0,2.0,97,0.00,,,0.05,meteohub,2013-08-23 12:28:00,
2013-08-23 08:33:00,58.3,57.4,30.03,West,259,0.0,2.0,97,0.00,,,0.05,meteohub,2013-08-23 12:33:00,
2013-08-23 08:38:00,58.3,57.4,30.04,East,80,0.0,1.0,97,0.00,,,0.05,meteohub,2013-08-23 12:38:00,
2013-08-23 08:43:00,58.5,57.6,30.04,NNW,329,0.0,2.0,97,0.00,,,0.05,meteohub,2013-08-23 12:43:00,
2013-08-23 08:48:00,58.6,57.6,30.04,SW,236,0.0,2.0,96,0.00,,,0.05,meteohub,2013-08-23 12:48:00,
2013-08-23 08:53:00,58.8,57.7,30.04,SW,236,0.0,2.0,96,0.00,,,0.05,meteohub,2013-08-23 12:53:00,
2013-08-23 08:58:00,59.0,57.6,30.04,North,0,0.0,2.0,95,0.00,,,0.05,meteohub,2013-08-23 12:58:00,
2013-08-23 09:03:00,59.2,57.4,30.05,SSW,200,0.0,2.0,94,0.00,,,0.05,meteohub,2013-08-23 13:03:00,
2013-08-23 09:08:00,59.5,57.7,30.05,SSW,200,0.0,2.0,94,0.00,,,0.05,meteohub,2013-08-23 13:08:00,
2013-08-23 09:13:00,59.7,57.7,30.05,SSW,198,0.0,2.0,93,0.00,,,0.05,meteohub,2013-08-23 13:13:00,
2013-08-23 09:18:00,60.1,58.1,30.05,SSW,198,0.0,2.0,93,0.00,,,0.05,meteohub,2013-08-23 13:18:00,
2013-08-23 09:23:00,60.6,58.6,30.06,SSW,198,2.0,2.0,93,0.00,,,0.05,meteohub,2013-08-23 13:23:00,
2013-08-23 09:28:00,61.0,59.0,30.06,South,177,0.0,2.0,93,0.00,,,0.05,meteohub,2013-08-23 13:28:00,
2013-08-23 09:33:00,61.2,58.8,30.06,SSE,149,0.0,3.0,92,0.00,,,0.05,meteohub,2013-08-23 13:33:00,
2013-08-23 09:38:00,61.7,60.3,30.06,SSE,156,2.0,4.0,95,0.00,,,0.05,meteohub,2013-08-23 13:38:00,
2013-08-23 09:43:00,61.7,58.8,30.06,ESE,107,0.0,5.0,90,0.00,,,0.05,meteohub,2013-08-23 13:43:00,
2013-08-23 09:48:00,62.1,58.8,30.06,West,268,0.0,5.0,89,0.00,,,0.05,meteohub,2013-08-23 13:48:00,
2013-08-23 09:53:00,62.8,59.5,30.06,East,82,1.0,3.0,89,0.00,,,0.05,meteohub,2013-08-23 13:53:00,
2013-08-23 09:58:00,63.3,59.0,30.06,SSE,160,1.0,3.0,86,0.00,,,0.05,meteohub,2013-08-23 13:58:00,
2013-08-23 10:04:00,64.0,60.4,30.07,SE,139,1.0,5.0,88,0.00,,,0.05,meteohub,2013-08-23 14:04:00,
2013-08-23 10:09:00,63.9,59.0,30.07,SSE,153,0.0,5.0,84,0.00,,,0.05,meteohub,2013-08-23 14:09:00,
2013-08-23 10:14:00,63.7,59.0,30.07,North,349,0.0,5.0,85,0.00,,,0.05,meteohub,2013-08-23 14:14:00,
2013-08-23 10:19:00,63.3,58.5,30.07,SSE,148,0.0,4.0,84,0.00,,,0.05,meteohub,2013-08-23 14:19:00,
2013-08-23 10:24:00,63.7,58.8,30.07,NW,322,1.0,4.0,84,0.00,,,0.05,meteohub,2013-08-23 14:24:00,
2013-08-23 10:29:00,63.7,58.1,30.07,NNE,26,0.0,4.0,82,0.00,,,0.05,meteohub,2013-08-23 14:29:00,
2013-08-23 10:34:00,63.5,58.3,30.08,ESE,111,1.0,6.0,83,0.00,,,0.05,meteohub,2013-08-23 14:34:00,
2013-08-23 10:39:00,63.7,58.1,30.08,NW,313,1.0,6.0,82,0.00,,,0.05,meteohub,2013-08-23 14:39:00,
2013-08-23 10:44:00,64.2,59.5,30.07,NW,319,0.0,5.0,85,0.00,,,0.05,meteohub,2013-08-23 14:44:00,
2013-08-23 10:49:00,64.8,58.1,30.07,SW,222,0.0,5.0,79,0.00,,,0.05,meteohub,2013-08-23 14:49:00,
2013-08-23 10:54:00,64.6,58.3,30.08,WNW,294,0.0,5.0,80,0.00,,,0.05,meteohub,2013-08-23 14:54:00,
2013-08-23 10:59:00,64.6,59.0,30.08,ESE,123,0.0,6.0,82,0.00,,,0.05,meteohub,2013-08-23 14:59:00,
2013-08-23 11:04:00,64.6,59.0,30.08,SSW,207,1.0,6.0,82,0.00,,,0.05,meteohub,2013-08-23 15:04:00,
2013-08-23 11:09:00,64.2,58.3,30.08,WSW,256,0.0,6.0,81,0.00,,,0.05,meteohub,2013-08-23 15:09:00,
2013-08-23 11:14:00,64.2,58.3,30.08,ENE,72,0.0,6.0,81,0.00,,,0.05,meteohub,2013-08-23 15:14:00,
2013-08-23 11:19:00,63.9,58.3,30.08,SW,232,0.0,5.0,82,0.00,,,0.05,meteohub,2013-08-23 15:19:00,
2013-08-23 11:24:00,63.9,58.3,30.08,WNW,294,2.0,5.0,82,0.00,,,0.05,meteohub,2013-08-23 15:24:00,
2013-08-23 11:29:00,64.0,58.5,30.08,SSE,168,2.0,5.0,82,0.00,,,0.05,meteohub,2013-08-23 15:29:00,
2013-08-23 11:34:00,64.4,58.1,30.08,NE,52,0.0,5.0,80,0.00,,,0.05,meteohub,2013-08-23 15:34:00,
2013-08-23 11:39:00,64.2,57.9,30.08,SSE,155,0.0,5.0,80,0.00,,,0.05,meteohub,2013-08-23 15:39:00,
2013-08-23 11:44:00,64.2,57.9,30.08,SSE,150,1.0,4.0,80,0.00,,,0.05,meteohub,2013-08-23 15:44:00,
2013-08-23 11:49:00,64.0,57.7,30.08,ENE,68,0.0,3.0,80,0.00,,,0.05,meteohub,2013-08-23 15:49:00,
2013-08-23 11:54:00,64.0,58.5,30.08,WNW,296,0.0,3.0,82,0.00,,,0.05,meteohub,2013-08-23 15:54:00,
2013-08-23 11:59:00,64.2,58.3,30.08,West,281,1.0,7.0,81,0.00,,,0.05,meteohub,2013-08-23 15:59:00,
2013-08-23 12:04:00,64.0,58.5,30.08,West,277,1.0,7.0,82,0.00,,,0.05,meteohub,2013-08-23 16:04:00,
2013-08-23 12:09:00,63.9,57.6,30.08,NW,320,0.0,7.0,80,0.00,,,0.05,meteohub,2013-08-23 16:09:00,
2013-08-23 12:14:00,64.9,59.4,30.08,West,277,2.0,5.0,82,0.00,,,0.05,meteohub,2013-08-23 16:14:00,
2013-08-23 12:19:00,65.8,59.2,30.08,NW,323,3.0,5.0,79,0.00,,,0.05,meteohub,2013-08-23 16:19:00,
2013-08-23 12:24:00,66.4,60.1,30.08,SSE,149,0.0,5.0,80,0.00,,,0.05,meteohub,2013-08-23 16:24:00,
2013-08-23 12:29:00,66.9,59.2,30.08,ESE,121,3.0,7.0,76,0.00,,,0.05,meteohub,2013-08-23 16:29:00,
2013-08-23 12:34:00,67.3,58.6,30.08,East,83,0.0,7.0,74,0.00,,,0.05,meteohub,2013-08-23 16:34:00,
2013-08-23 12:39:00,67.3,60.3,30.08,South,186,2.0,7.0,78,0.00,,,0.05,meteohub,2013-08-23 16:39:00,
2013-08-23 12:44:00,67.3,59.5,30.08,NNW,338,1.0,7.0,76,0.00,,,0.05,meteohub,2013-08-23 16:44:00,
2013-08-23 12:49:00,67.1,59.7,30.08,SSW,202,1.0,7.0,77,0.00,,,0.05,meteohub,2013-08-23 16:49:00,
2013-08-23 12:54:00,67.6,59.0,30.07,WSW,238,0.0,8.0,74,0.00,,,0.05,meteohub,2013-08-23 16:54:00,
2013-08-23 12:59:00,67.6,58.6,30.08,West,277,0.0,8.0,73,0.00,,,0.05,meteohub,2013-08-23 16:59:00,
2013-08-23 13:04:00,68.2,61.0,30.08,East,85,2.0,8.0,78,0.00,,,0.05,meteohub,2013-08-23 17:04:00,
2013-08-23 13:09:00,68.4,58.6,30.07,East,82,2.0,5.0,71,0.00,,,0.05,meteohub,2013-08-23 17:09:00,
2013-08-23 13:14:00,68.4,59.7,30.08,NW,313,2.0,7.0,74,0.00,,,0.05,meteohub,2013-08-23 17:14:00,
2013-08-23 13:20:00,68.0,57.9,30.08,ESE,105,0.0,8.0,70,0.00,,,0.05,meteohub,2013-08-23 17:20:00,
2013-08-23 13:25:00,67.5,58.1,30.08,SW,216,1.0,8.0,72,0.00,,,0.05,meteohub,2013-08-23 17:25:00,
2013-08-23 13:30:00,67.6,59.0,30.08,SSE,159,2.0,6.0,74,0.00,,,0.05,meteohub,2013-08-23 17:30:00,
2013-08-23 13:35:00,68.0,58.6,30.08,NNW,335,0.0,8.0,72,0.00,,,0.05,meteohub,2013-08-23 17:35:00,
2013-08-23 13:40:00,68.2,59.2,30.08,SSW,211,0.0,8.0,73,0.00,,,0.05,meteohub,2013-08-23 17:40:00,
2013-08-23 13:45:00,68.4,58.3,30.08,SE,129,0.0,8.0,70,0.00,,,0.05,meteohub,2013-08-23 17:45:00,
2013-08-23 13:50:00,68.2,58.1,30.09,East,87,0.0,5.0,70,0.00,,,0.05,meteohub,2013-08-23 17:50:00,
2013-08-23 13:55:00,68.5,58.3,30.09,WSW,241,0.0,5.0,70,0.00,,,0.05,meteohub,2013-08-23 17:55:00,
2013-08-23 14:00:00,69.1,58.5,30.09,ENE,75,2.0,5.0,69,0.00,,,0.05,meteohub,2013-08-23 18:00:00,
2013-08-23 14:05:00,68.5,58.3,30.09,NNE,13,2.0,5.0,70,0.00,,,0.05,meteohub,2013-08-23 18:05:00,
2013-08-23 14:10:00,68.7,58.1,30.09,ENE,66,2.0,7.0,69,0.00,,,0.05,meteohub,2013-08-23 18:10:00,
2013-08-23 14:15:00,69.1,58.1,30.09,West,277,1.0,7.0,68,0.00,,,0.05,meteohub,2013-08-23 18:15:00,
2013-08-23 14:20:00,68.9,57.6,30.09,SSW,209,0.0,7.0,67,0.00,,,0.05,meteohub,2013-08-23 18:20:00,
2013-08-23 14:25:00,69.1,57.7,30.09,WSW,241,3.0,7.0,67,0.00,,,0.05,meteohub,2013-08-23 18:25:00,
2013-08-23 14:30:00,69.3,58.6,30.09,ENE,74,1.0,7.0,69,0.00,,,0.05,meteohub,2013-08-23 18:30:00,
2013-08-23 14:35:00,69.1,58.5,30.09,SSW,204,2.0,7.0,69,0.00,,,0.05,meteohub,2013-08-23 18:35:00,
2013-08-23 14:40:00,68.5,57.9,30.09,NE,45,0.0,6.0,69,0.00,,,0.05,meteohub,2013-08-23 18:40:00,
2013-08-23 14:45:00,68.5,57.6,30.09,North,11,1.0,5.0,68,0.00,,,0.05,meteohub,2013-08-23 18:45:00,
2013-08-23 14:50:00,68.7,57.7,30.09,NW,314,1.0,6.0,68,0.00,,,0.05,meteohub,2013-08-23 18:50:00,
2013-08-23 14:55:00,69.1,58.5,30.10,WSW,252,4.0,6.0,69,0.00,,,0.05,meteohub,2013-08-23 18:55:00,
2013-08-23 15:00:00,69.3,58.3,30.10,West,260,0.0,6.0,68,0.00,,,0.05,meteohub,2013-08-23 19:00:00,
2013-08-23 15:05:00,69.4,59.5,30.10,West,267,3.0,8.0,71,0.00,,,0.05,meteohub,2013-08-23 19:05:00,
2013-08-23 15:10:00,69.4,57.2,30.10,WNW,284,0.0,8.0,65,0.00,,,0.05,meteohub,2013-08-23 19:10:00,
2013-08-23 15:15:00,69.4,57.9,30.10,SE,126,0.0,6.0,67,0.00,,,0.05,meteohub,2013-08-23 19:15:00,
2013-08-23 15:20:00,69.3,57.4,30.10,North,350,0.0,5.0,66,0.00,,,0.05,meteohub,2013-08-23 19:20:00,
2013-08-23 15:25:00,69.8,58.3,30.10,ENE,74,0.0,5.0,67,0.00,,,0.05,meteohub,2013-08-23 19:25:00,
2013-08-23 15:30:00,70.2,59.5,30.10,WNW,303,2.0,5.0,69,0.00,,,0.05,meteohub,2013-08-23 19:30:00,
2013-08-23 15:35:00,70.0,58.5,30.10,ENE,78,0.0,4.0,67,0.00,,,0.05,meteohub,2013-08-23 19:35:00,
2013-08-23 15:40:00,69.8,58.3,30.10,SSE,150,0.0,7.0,67,0.00,,,0.05,meteohub,2013-08-23 19:40:00,
2013-08-23 15:45:00,69.6,55.9,30.10,SW,217,4.0,7.0,62,0.00,,,0.05,meteohub,2013-08-23 19:45:00,
2013-08-23 15:50:00,69.4,56.7,30.11,SW,231,0.0,5.0,64,0.00,,,0.05,meteohub,2013-08-23 19:50:00,
2013-08-23 15:55:00,69.4,56.7,30.11,West,273,1.0,6.0,64,0.00,,,0.05,meteohub,2013-08-23 19:55:00,
2013-08-23 16:00:00,70.0,56.3,30.12,ENE,66,0.0,6.0,62,0.00,,,0.05,meteohub,2013-08-23 20:00:00,
2013-08-23 16:05:00,70.0,54.5,30.11,WNW,300,1.0,6.0,58,0.00,,,0.05,meteohub,2013-08-23 20:05:00,
2013-08-23 16:10:00,69.4,53.1,30.11,WNW,296,0.0,7.0,56,0.00,,,0.05,meteohub,2013-08-23 20:10:00,
2013-08-23 16:15:00,69.4,54.5,30.12,North,355,1.0,7.0,59,0.00,,,0.05,meteohub,2013-08-23 20:15:00,
2013-08-23 16:20:00,69.6,53.8,30.12,NNE,18,2.0,7.0,57,0.00,,,0.05,meteohub,2013-08-23 20:20:00,
2013-08-23 16:25:00,69.3,54.9,30.12,SE,143,0.0,4.0,60,0.00,,,0.05,meteohub,2013-08-23 20:25:00,
2013-08-23 16:30:00,69.4,54.0,30.12,ESE,121,0.0,5.0,58,0.00,,,0.05,meteohub,2013-08-23 20:30:00,
2013-08-23 16:35:00,69.3,52.9,30.12,WNW,300,0.0,5.0,56,0.00,,,0.05,meteohub,2013-08-23 20:35:00,
2013-08-23 16:40:00,69.1,52.2,30.12,ESE,119,0.0,5.0,55,0.00,,,0.05,meteohub,2013-08-23 20:40:00,
2013-08-23 16:45:00,68.9,51.1,30.12,SW,222,2.0,5.0,53,0.00,,,0.05,meteohub,2013-08-23 20:45:00,
2013-08-23 16:50:00,68.5,51.8,30.12,SE,143,0.0,5.0,55,0.00,,,0.05,meteohub,2013-08-23 20:50:00,
2013-08-23 16:55:00,68.5,51.8,30.12,East,79,0.0,5.0,55,0.00,,,0.05,meteohub,2013-08-23 20:55:00,
2013-08-23 17:00:00,68.5,51.3,30.12,East,85,0.0,5.0,54,0.00,,,0.05,meteohub,2013-08-23 21:00:00,
2013-08-23 17:05:00,68.5,51.3,30.13,East,84,0.0,4.0,54,0.00,,,0.05,meteohub,2013-08-23 21:05:00,
2013-08-23 17:10:00,68.5,50.7,30.12,East,85,0.0,3.0,53,0.00,,,0.05,meteohub,2013-08-23 21:10:00,
2013-08-23 17:16:00,68.2,51.8,30.12,ESE,109,4.0,6.0,56,0.00,,,0.05,meteohub,2013-08-23 21:16:00,
2013-08-23 17:21:00,67.6,51.4,30.12,North,355,0.0,6.0,56,0.00,,,0.05,meteohub,2013-08-23 21:21:00,
2013-08-23 17:26:00,67.6,52.3,30.13,South,179,1.0,6.0,58,0.00,,,0.05,meteohub,2013-08-23 21:26:00,
2013-08-23 17:31:00,67.5,51.6,30.13,East,96,0.0,6.0,57,0.00,,,0.05,meteohub,2013-08-23 21:31:00,
2013-08-23 17:36:00,67.5,52.2,30.13,East,96,0.0,3.0,58,0.00,,,0.05,meteohub,2013-08-23 21:36:00,
2013-08-23 17:41:00,67.5,51.3,30.13,East,96,1.0,3.0,56,0.00,,,0.05,meteohub,2013-08-23 21:41:00,
2013-08-23 17:46:00,67.5,52.2,30.13,East,96,0.0,3.0,58,0.00,,,0.05,meteohub,2013-08-23 21:46:00,
2013-08-23 17:51:00,67.3,51.4,30.13,South,178,0.0,3.0,57,0.00,,,0.05,meteohub,2013-08-23 21:51:00,
2013-08-23 17:56:00,66.9,51.3,30.13,South,178,0.0,2.0,57,0.00,,,0.05,meteohub,2013-08-23 21:56:00,
2013-08-23 18:01:00,66.7,53.2,30.13,ESE,106,0.0,3.0,62,0.00,,,0.05,meteohub,2013-08-23 22:01:00,
2013-08-23 18:06:00,66.4,52.2,30.13,North,355,0.0,3.0,60,0.00,,,0.05,meteohub,2013-08-23 22:06:00,
2013-08-23 18:11:00,66.0,53.1,30.13,NW,307,2.0,3.0,63,0.00,,,0.05,meteohub,2013-08-23 22:11:00,
2013-08-23 18:16:00,65.5,53.1,30.13,NW,307,0.0,2.0,64,0.00,,,0.05,meteohub,2013-08-23 22:16:00,
2013-08-23 18:21:00,64.2,51.8,30.13,WNW,288,1.0,2.0,64,0.00,,,0.05,meteohub,2013-08-23 22:21:00,
2013-08-23 18:26:00,63.5,52.0,30.13,WSW,249,0.0,3.0,66,0.00,,,0.05,meteohub,2013-08-23 22:26:00,
2013-08-23 18:31:00,63.0,51.4,30.13,NNE,22,2.0,3.0,66,0.00,,,0.05,meteohub,2013-08-23 22:31:00,
2013-08-23 18:36:00,62.4,51.3,30.14,NNE,22,0.0,3.0,67,0.00,,,0.05,meteohub,2013-08-23 22:36:00,
2013-08-23 18:41:00,62.1,52.5,30.14,ENE,63,0.0,2.0,71,0.00,,,0.05,meteohub,2013-08-23 22:41:00,
2013-08-23 18:46:00,61.5,52.0,30.14,ENE,63,0.0,2.0,71,0.00,,,0.05,meteohub,2013-08-23 22:46:00,
2013-08-23 18:51:00,61.2,51.3,30.14,NW,325,0.0,2.0,70,0.00,,,0.05,meteohub,2013-08-23 22:51:00,
2013-08-23 18:56:00,60.8,50.9,30.14,NNW,329,0.0,4.0,70,0.00,,,0.05,meteohub,2013-08-23 22:56:00,
2013-08-23 19:01:00,60.4,52.5,30.14,NNW,329,0.0,4.0,75,0.00,,,0.05,meteohub,2013-08-23 23:01:00,
2013-08-23 19:06:00,60.1,52.9,30.15,NNW,329,1.0,4.0,77,0.00,,,0.05,meteohub,2013-08-23 23:06:00,
2013-08-23 19:11:00,59.5,52.0,30.15,NNW,329,0.0,2.0,76,0.00,,,0.05,meteohub,2013-08-23 23:11:00,
2013-08-23 19:16:00,59.2,51.6,30.15,NNW,329,0.0,1.0,76,0.00,,,0.05,meteohub,2013-08-23 23:16:00,
2013-08-23 19:21:00,58.6,52.2,30.15,NNW,329,0.0,1.0,79,0.00,,,0.05,meteohub,2013-08-23 23:21:00,
2013-08-23 19:26:00,58.5,51.6,30.15,NNW,329,0.0,1.0,78,0.00,,,0.05,meteohub,2013-08-23 23:26:00,
2013-08-23 19:31:00,57.9,51.1,30.15,NNW,338,1.0,1.0,78,0.00,,,0.05,meteohub,2013-08-23 23:31:00,
2013-08-23 19:36:00,57.7,51.3,30.15,NNW,338,0.0,1.0,79,0.00,,,0.05,meteohub,2013-08-23 23:36:00,
2013-08-23 19:41:00,57.6,51.8,30.15,NNW,338,0.0,1.0,81,0.00,,,0.05,meteohub,2013-08-23 23:41:00,
2013-08-23 19:46:00,57.0,51.6,30.15,NNW,338,0.0,1.0,82,0.00,,,0.05,meteohub,2013-08-23 23:46:00,
2013-08-23 19:51:00,56.8,51.8,30.15,NNW,338,0.0,1.0,83,0.00,,,0.05,meteohub,2013-08-23 23:51:00,
2013-08-23 19:56:00,56.5,51.4,30.16,NNW,338,0.0,0.0,83,0.00,,,0.05,meteohub,2013-08-23 23:56:00,
2013-08-23 20:01:00,56.1,51.4,30.16,NNW,338,0.0,0.0,84,0.00,,,0.05,meteohub,2013-08-24 00:01:00,
2013-08-23 20:06:00,55.6,50.9,30.16,NNW,338,0.0,0.0,84,0.00,,,0.00,meteohub,2013-08-24 00:06:00,
2013-08-23 20:11:00,55.2,50.5,30.17,NNW,338,0.0,1.0,84,0.00,,,0.00,meteohub,2013-08-24 00:11:00,
2013-08-23 20:16:00,54.9,50.4,30.17,NNW,338,0.0,1.0,85,0.00,,,0.00,meteohub,2013-08-24 00:16:00,
2013-08-23 20:21:00,54.3,49.8,30.17,NNW,338,0.0,1.0,85,0.00,,,0.00,meteohub,2013-08-24 00:21:00,
2013-08-23 20:27:00,54.1,50.4,30.17,NNW,338,0.0,1.0,87,0.00,,,0.00,meteohub,2013-08-24 00:27:00,
2013-08-23 20:32:00,53.8,50.4,30.17,NNW,338,0.0,1.0,88,0.00,,,0.00,meteohub,2013-08-24 00:32:00,
2013-08-23 20:37:00,53.6,50.2,30.17,NNW,338,0.0,1.0,88,0.00,,,0.00,meteohub,2013-08-24 00:37:00,
2013-08-23 20:42:00,53.4,50.2,30.18,NNW,338,0.0,1.0,89,0.00,,,0.00,meteohub,2013-08-24 00:42:00,
2013-08-23 20:47:00,53.2,50.0,30.18,NNW,338,0.0,1.0,89,0.00,,,0.00,meteohub,2013-08-24 00:47:00,
2013-08-23 20:52:00,53.1,49.8,30.18,NNW,338,0.0,1.0,89,0.00,,,0.00,meteohub,2013-08-24 00:52:00,
2013-08-23 20:57:00,52.9,50.0,30.19,NNW,338,0.0,1.0,90,0.00,,,0.00,meteohub,2013-08-24 00:57:00,
2013-08-23 21:02:00,52.9,50.0,30.19,NNW,338,0.0,1.0,90,0.00,,,0.00,meteohub,2013-08-24 01:02:00,
2013-08-23 21:07:00,52.7,49.8,30.19,NNW,338,0.0,1.0,90,0.00,,,0.00,meteohub,2013-08-24 01:07:00,
2013-08-23 21:12:00,52.9,50.4,30.19,NNW,338,0.0,1.0,91,0.00,,,0.00,meteohub,2013-08-24 01:12:00,
2013-08-23 21:17:00,52.9,50.0,30.19,NNW,338,0.0,1.0,90,0.00,,,0.00,meteohub,2013-08-24 01:17:00,
2013-08-23 21:22:00,53.2,50.4,30.19,NNW,338,0.0,1.0,90,0.00,,,0.00,meteohub,2013-08-24 01:22:00,
2013-08-23 21:27:00,53.1,50.2,30.20,NNW,338,0.0,1.0,90,0.00,,,0.00,meteohub,2013-08-24 01:27:00,
2013-08-23 21:32:00,52.9,50.0,30.20,NNW,338,0.0,1.0,90,0.00,,,0.00,meteohub,2013-08-24 01:32:00,
2013-08-23 21:37:00,52.3,49.5,30.20,NNW,338,0.0,1.0,90,0.00,,,0.00,meteohub,2013-08-24 01:37:00,
2013-08-23 21:42:00,52.3,49.8,30.20,NNW,338,0.0,1.0,91,0.00,,,0.00,meteohub,2013-08-24 01:42:00,
2013-08-23 21:47:00,52.3,49.8,30.20,NNW,338,0.0,1.0,91,0.00,,,0.00,meteohub,2013-08-24 01:47:00,
2013-08-23 21:52:00,52.3,49.8,30.21,NNW,338,0.0,1.0,91,0.00,,,0.00,meteohub,2013-08-24 01:52:00,
2013-08-23 21:57:00,52.3,49.8,30.21,NNW,338,0.0,1.0,91,0.00,,,0.00,meteohub,2013-08-24 01:57:00,
2013-08-23 22:02:00,52.3,49.8,30.21,NNW,338,0.0,1.0,91,0.00,,,0.00,meteohub,2013-08-24 02:02:00,
2013-08-23 22:07:00,52.3,49.8,30.21,NNW,338,0.0,1.0,91,0.00,,,0.00,meteohub,2013-08-24 02:07:00,
2013-08-23 22:12:00,52.2,49.6,30.21,NNW,338,0.0,1.0,91,0.00,,,0.00,meteohub,2013-08-24 02:12:00,
2013-08-23 22:17:00,52.2,49.6,30.21,NNW,338,0.0,1.0,91,0.00,,,0.00,meteohub,2013-08-24 02:17:00,
2013-08-23 22:22:00,52.0,49.5,30.22,NNW,338,0.0,1.0,91,0.00,,,0.00,meteohub,2013-08-24 02:22:00,
2013-08-23 22:27:00,52.0,49.5,30.22,NNW,338,0.0,1.0,91,0.00,,,0.00,meteohub,2013-08-24 02:27:00,
2013-08-23 22:32:00,52.0,49.5,30.22,NNW,338,0.0,0.0,91,0.00,,,0.00,meteohub,2013-08-24 02:32:00,
2013-08-23 22:38:00,52.0,49.5,30.22,NNW,338,0.0,1.0,91,0.00,,,0.00,meteohub,2013-08-24 02:38:00,
2013-08-23 22:42:00,52.0,49.5,30.22,NNW,338,0.0,1.0,91,0.00,,,0.00,meteohub,2013-08-24 02:42:00,
2013-08-23 22:47:00,51.8,49.3,30.22,NNW,338,0.0,1.0,91,0.00,,,0.00,meteohub,2013-08-24 02:47:00,
2013-08-23 22:52:00,52.0,49.5,30.22,NNW,338,0.0,1.0,91,0.00,,,0.00,meteohub,2013-08-24 02:52:00,
2013-08-23 22:58:00,51.8,49.3,30.22,NNW,338,0.0,1.0,91,0.00,,,0.00,meteohub,2013-08-24 02:58:00,
2013-08-23 23:03:00,51.6,49.1,30.22,NNW,338,0.0,1.0,91,0.00,,,0.00,meteohub,2013-08-24 03:03:00,
2013-08-23 23:08:00,51.4,48.9,30.23,NNW,338,0.0,0.0,91,0.00,,,0.00,meteohub,2013-08-24 03:08:00,
2013-08-23 23:13:00,51.3,48.7,30.23,NNW,338,0.0,0.0,91,0.00,,,0.00,meteohub,2013-08-24 03:13:00,
2013-08-23 23:18:00,51.3,49.1,30.23,NNW,338,0.0,1.0,92,0.00,,,0.00,meteohub,2013-08-24 03:18:00,
2013-08-23 23:23:00,51.1,48.9,30.23,NNW,338,1.0,1.0,92,0.00,,,0.00,meteohub,2013-08-24 03:23:00,
2013-08-23 23:28:00,50.7,48.6,30.23,NNW,338,0.0,1.0,92,0.00,,,0.00,meteohub,2013-08-24 03:28:00,
2013-08-23 23:33:00,50.7,48.7,30.23,NNW,338,1.0,1.0,93,0.00,,,0.00,meteohub,2013-08-24 03:33:00,
2013-08-23 23:38:00,50.7,48.7,30.23,NNW,338,0.0,1.0,93,0.00,,,0.00,meteohub,2013-08-24 03:38:00,
2013-08-23 23:43:00,50.5,48.6,30.23,NNW,338,0.0,1.0,93,0.00,,,0.00,meteohub,2013-08-24 03:43:00,
2013-08-23 23:48:00,50.4,48.4,30.24,NNW,338,0.0,1.0,93,0.00,,,0.00,meteohub,2013-08-24 03:48:00,
2013-08-23 23:53:00,50.5,48.9,30.24,NNW,338,0.0,1.0,94,0.00,,,0.00,meteohub,2013-08-24 03:53:00,
2013-08-23 23:58:00,50.5,48.6,30.24,NNW,338,0.0,1.0,93,0.00,,,0.00,meteohub,2013-08-24 03:58:00,